Home   Weather   Adamstown   Past weeks

Flag for Pitcairn Islands Past Weather in Adamstown, Pitcairn Islands — Yesterday and Last 2 Weeks

Now
80 °F

Overcast.


Feels Like: 84 °F
Forecast: 71 / 78 °F
Wind: 8 mph from Southeast

Location: Hao

Current Time: Dec 11, 2016 at 1:54:30 am

Latest Report: Dec 11, 2016 at 1:00 am


Visibility: 13 mi

Pressure: 29.91 "Hg

Humidity: 82%

Dew Point: 74 °F

Location of AdamstownLocation

Past Weather in Adamstown — Graph

°F

Adamstown Temperature Yesterday

Maximum temperature yesterday: 85 °F (at 3:00 pm)
Minimum temperature yesterday: 77 °F (at 6:00 am)
Average temperature yesterday: 81 °F

High & Low Weather Summary for the Past Weeks

 TemperatureHumidityPressure
High85 °F (Dec 8, 4:00 pm)89% (Nov 26, 12:00 am)30.02 "Hg (Nov 26, 12:00 am)
Low76 °F (Dec 1, 2:00 am)64% (Dec 8, 7:00 pm)29.81 "Hg (Dec 7, 5:00 pm)
Average81 °F76%29.92 "Hg
* Reported Nov 26 12:00 am — Dec 11 12:00 am, Adamstown, Weather by CustomWeather, © 2016

Note: Actual official high and low records may vary slightly from our data, if they occured in-between our weather recording intervals... More about our weather records

Advertising

Adamstown Weather History for the Previous 24 Hours

Scroll right to see more
 ConditionsComfort  
Time TempWeatherWind HumidityBarometerVisibility
12:00 am
Sun, Dec 11
81 °FOvercast.8 mph77%29.93 "Hg9 mi
11:00 pm
Sat, Dec 10
82 °FOvercast.6 mph74%29.93 "Hg12 mi
10:00 pm82 °FOvercast.7 mph74%29.92 "Hg12 mi
9:00 pm81 °FOvercast.5 mph76%29.90 "Hg12 mi
7:00 pm82 °FWarm.9 mph76%29.87 "Hg12 mi
6:00 pm83 °FWarm.3 mph71%29.85 "Hg12 mi
5:00 pm83 °FWarm.3 mph71%29.85 "Hg11 mi
4:00 pm84 °FWarm.3 mph70%29.86 "Hg12 mi
3:00 pm85 °FWarm.5 mph69%29.87 "Hg11 mi
2:00 pm85 °FWarm.6 mph72%29.89 "Hg9 mi
1:00 pm84 °FWarm.5 mph73%29.91 "Hg8 mi
12:00 pm82 °FOvercast.6 mph75%29.92 "Hg9 mi
11:00 am82 °FOvercast.5 mph77%29.93 "Hg11 mi
10:00 am81 °FOvercast.5 mph78%29.94 "Hg12 mi
9:00 am83 °FWarm.9 mph74%29.93 "Hg12 mi
8:00 am81 °FOvercast.10 mph78%29.93 "Hg12 mi
7:00 am78 °FWarm.7 mph84%29.90 "Hg12 mi
6:00 am77 °FWarm.9 mph84%29.88 "Hg12 mi
5:00 am78 °FWarm.9 mph85%29.86 "Hg12 mi
4:00 am78 °FWarm.10 mph85%29.85 "Hg12 mi
3:00 am79 °FWarm.9 mph83%29.86 "Hg12 mi
2:00 am79 °FWarm.8 mph83%29.88 "Hg12 mi
1:00 am79 °FOvercast.12 mph85%29.91 "Hg12 mi
Weather by CustomWeather, © 2016

See weather overviewHow to use our weather pages